DLH1PM EDDF-EDDS

Flight info

Callsign DLH1PM
Flight time 0h 22m
Altitude 17000
Route ANEKI2L/18 ANEKI Y163 NEKLO Y171 INKAM N850 KRH T128 BADSO BADSO2A
Aircraft A320/M-SDE2E3FGIJ1LORWXYZ/HB1

Departure

Time 2026-05-04 16:16
Airport Frankfurt Main Airport (EDDF)

Arrival

Time 2026-05-04 16:38
Airport Stuttgart Airport (EDDS)
Time Latitude Longitude Altitude Speed Heading
2026-05-04 15:45 50.04543 8.56226 363 ft 0 kts 39°
2026-05-04 16:05 50.04522 8.56205 361 ft 4 kts 14°
2026-05-04 16:06 50.04500 8.56207 357 ft 4 kts 314°
2026-05-04 16:06 50.04489 8.56276 356 ft 4 kts 248°
2026-05-04 16:07 50.04478 8.56223 361 ft 4 kts 252°
2026-05-04 16:07 50.04468 8.56183 356 ft 0 kts 247°
2026-05-04 16:09 50.04456 8.56137 358 ft 7 kts 248°
2026-05-04 16:09 50.04371 8.56038 362 ft 11 kts 162°
2026-05-04 16:10 50.04245 8.55958 356 ft 15 kts 249°
2026-05-04 16:11 50.04113 8.55409 353 ft 20 kts 249°
2026-05-04 16:11 50.04064 8.55203 356 ft 20 kts 249°
2026-05-04 16:12 50.03903 8.54533 354 ft 24 kts 249°
2026-05-04 16:12 50.03717 8.53873 352 ft 22 kts 249°
2026-05-04 16:13 50.03595 8.53377 337 ft 27 kts 250°
2026-05-04 16:13 50.03493 8.52952 337 ft 20 kts 249°
2026-05-04 16:14 50.03411 8.52617 336 ft 7 kts 249°
2026-05-04 16:14 50.03375 8.52594 334 ft 0 kts 180°
2026-05-04 16:15 50.01496 8.52616 415 ft 175 kts 182°
2026-05-04 16:16 49.99082 8.52686 1934 ft 182 kts 180°
2026-05-04 16:16 49.94507 8.53022 3245 ft 258 kts 179°
2026-05-04 16:17 49.90825 8.53275 5338 ft 263 kts 178°
2026-05-04 16:18 49.85978 8.53612 8207 ft 264 kts 179°
2026-05-04 16:18 49.84129 8.53738 9187 ft 267 kts 180°
2026-05-04 16:19 49.78208 8.54114 11131 ft 307 kts 183°
2026-05-04 16:19 49.73879 8.53571 12716 ft 318 kts 187°
2026-05-04 16:20 49.67107 8.52677 14984 ft 332 kts 187°
2026-05-04 16:20 49.62443 8.52209 16406 ft 343 kts 178°
2026-05-04 16:21 49.55849 8.53847 17521 ft 347 kts 182°
2026-05-04 16:22 49.51077 8.52866 18302 ft 348 kts 192°
2026-05-04 16:22 49.43862 8.51039 18949 ft 350 kts 187°
2026-05-04 16:23 49.36681 8.52890 17617 ft 352 kts 169°
2026-05-04 16:24 49.27202 8.56473 16571 ft 348 kts 169°
2026-05-04 16:25 49.22619 8.58192 16207 ft 330 kts 168°
2026-05-04 16:26 49.14851 8.64386 15204 ft 312 kts 154°
2026-05-04 16:26 49.08930 8.69433 13063 ft 338 kts 154°
2026-05-04 16:27 49.04755 8.72977 11515 ft 348 kts 154°
2026-05-04 16:28 48.98191 8.76759 10307 ft 321 kts 169°
2026-05-04 16:28 48.92000 8.78985 9706 ft 286 kts 175°
2026-05-04 16:29 48.84379 8.78734 8274 ft 270 kts 184°
2026-05-04 16:30 48.78907 8.79987 7055 ft 266 kts 163°
2026-05-04 16:31 48.75397 8.81608 6255 ft 262 kts 164°
2026-05-04 16:31 48.70177 8.83885 5154 ft 251 kts 163°
2026-05-04 16:32 48.66082 8.87560 4445 ft 225 kts 117°
2026-05-04 16:33 48.64764 8.91656 4098 ft 210 kts 114°
2026-05-04 16:33 48.64001 8.95650 4005 ft 194 kts 84°
2026-05-04 16:34 48.64642 8.99472 3990 ft 181 kts 73°
2026-05-04 16:34 48.64993 9.01294 3805 ft 180 kts 72°
2026-05-04 16:35 48.66009 9.06589 3107 ft 170 kts 72°
2026-05-04 16:35 48.66875 9.11131 2486 ft 140 kts 71°
2026-05-04 16:36 48.67091 9.12253 2333 ft 139 kts 71°
2026-05-04 16:36 48.67622 9.15048 1965 ft 141 kts 72°
2026-05-04 16:37 48.68109 9.17586 1681 ft 139 kts 71°
2026-05-04 16:37 48.68373 9.18970 1479 ft 135 kts 71°
2026-05-04 16:37 48.68864 9.21525 1256 ft 100 kts 75°
2026-05-04 16:38 48.69060 9.22539 1226 ft 10 kts 46°
2026-05-04 16:39 48.69213 9.22497 1233 ft 5 kts 344°
2026-05-04 16:39 48.69289 9.22423 1241 ft 8 kts 279°
2026-05-04 16:40 48.69248 9.22192 1254 ft 12 kts 254°
2026-05-04 16:40 48.69186 9.21866 1256 ft 19 kts 254°
2026-05-04 16:41 48.69113 9.21484 1261 ft 18 kts 254°
2026-05-04 16:41 48.69021 9.20995 1271 ft 12 kts 254°
2026-05-04 16:42 48.68976 9.20604 1281 ft 7 kts 311°
2026-05-04 16:43 48.68999 9.20569 1283 ft 1 kts 314°
2026-05-04 16:43 48.69055 9.20481 1287 ft 9 kts 313°
2026-05-04 16:43 48.69055 9.20392 1291 ft 10 kts 253°
2026-05-04 16:44 48.68968 9.20001 1303 ft 11 kts 237°
2026-05-04 16:45 48.68890 9.19814 1304 ft 11 kts 242°
2026-05-04 16:46 48.68920 9.19729 1310 ft 3 kts 343°
2026-05-04 16:46 48.68951 9.19715 1312 ft 1 kts 344°
2026-05-04 16:47 48.68954 9.19714 1312 ft 0 kts 344°